Location: Unspecified
(41.5516°N, 88.1098°W)
Time: 08:37:19
(UTC-05:00)

Resurs 1-4 Rocket - Visible Passes

Search period start: 25 March 2017 00:00
Search period end: 04 April 2017 00:00
Orbit: 800 x 814 km, 98.5° (Epoch: 23 March)

Date Brightness Start Highest point End Pass type
(mag) Time Alt. Az. Time Alt. Az. Time Alt. Az.
25 Mar 3.5 03:30:03 10° NNE 03:32:55 33° N 03:32:55 33° N visible
25 Mar 4.1 05:12:33 10° NW 05:14:01 12° NW 05:14:01 12° NW visible
26 Mar 3.8 03:05:34 10° NNE 03:08:12 29° NNE 03:08:12 29° NNE visible
26 Mar 3.8 04:46:32 10° NNW 04:49:17 18° NW 04:49:17 18° NW visible
27 Mar 4.3 02:41:19 10° NNE 02:43:27 22° NE 02:43:27 22° NE visible
27 Mar 3.4 04:21:18 10° N 04:24:33 27° NW 04:24:33 27° NW visible
28 Mar 4.7 02:17:27 10° NE 02:18:42 15° NE 02:18:42 15° NE visible
28 Mar 3.1 03:56:23 10° N 03:59:48 36° NNW 03:59:48 36° NNW visible
29 Mar 3.1 03:31:40 10° NNE 03:35:04 41° N 03:35:04 41° N visible
29 Mar 4.1 05:14:25 10° NW 05:15:56 11° WNW 05:16:09 11° WNW visible
30 Mar 3.5 03:07:10 10° NNE 03:10:20 35° NE 03:10:20 35° NE visible
30 Mar 3.7 04:48:13 10° NNW 04:51:25 18° WNW 04:51:25 18° WNW visible
31 Mar 4.0 02:42:53 10° NNE 02:45:35 26° NE 02:45:35 26° NE visible
31 Mar 3.2 04:22:57 10° N 04:26:40 28° NW 04:26:40 28° NW visible
01 Apr 4.5 02:18:59 10° NE 02:20:50 17° ENE 02:20:50 17° ENE visible
01 Apr 2.8 03:58:01 10° N 04:01:56 40° NW 04:01:56 40° NW visible
02 Apr 4.9 01:55:55 10° ENE 01:56:06 10° ENE 01:56:06 10° ENE visible
02 Apr 2.7 03:33:17 10° N 03:37:11 50° N 03:37:11 50° N visible
02 Apr 4.1 05:16:19 10° NW 05:17:31 11° WNW 05:18:16 10° WNW visible
03 Apr 3.1 03:08:46 10° NNE 03:12:26 43° NE 03:12:26 43° NE visible
03 Apr 3.7 04:49:55 10° NNW 04:53:19 18° WNW 04:53:32 18° WNW visible
